| time (UTC) | temp F | wind direction | speed MPH | gust MPH | rain 1hr in | rain 24hr in | rain mn in | humidity % | barometer mb |
| 20260904141333 | 81 | 129 | 0.0 | 5.0 | 0.00 | 0.58 | 0.00 | 96 | 1014.8 |
| 20260904140825 | 81 | 87 | 0.0 | 2.0 | 0.00 | 0.58 | 0.00 | 97 | 1014.8 |
| 20260904140337 | 81 | 133 | 0.0 | 3.0 | 0.00 | 0.58 | 0.00 | 97 | 1014.8 |
| 20260904135824 | 81 | 59 | 0.0 | 1.0 | 0.00 | 0.58 | 0.00 | 97 | 1014.8 |
| 20260904135334 | 80 | 59 | 0.0 | 0.0 | 0.00 | 0.58 | 0.00 | 97 | 1014.8 |
| 20260904134828 | 80 | 59 | 0.0 | 0.0 | 0.00 | 0.58 | 0.00 | 97 | 1014.8 |
| 20260904134339 | 80 | 59 | 0.0 | 3.0 | 0.00 | 0.58 | 0.00 | 97 | 1014.8 |
| 20260904133835 | 80 | 59 | 0.0 | 3.0 | 0.00 | 0.58 | 0.00 | 97 | 1014.8 |
| 20260904133343 | 80 | 60 | 0.0 | 0.0 | 0.00 | 0.58 | 0.00 | 97 | 1014.8 |
| 20260904132834 | 80 | 60 | 0.0 | 0.0 | 0.00 | 0.58 | 0.00 | 97 | 1014.6 |
| 20260904132350 | 80 | 119 | 0.0 | 0.0 | 0.00 | 0.58 | 0.00 | 97 | 1014.6 |
| 20260904131823 | 80 | 119 | 0.0 | 0.0 | 0.00 | 0.58 | 0.00 | 97 | 1014.6 |
| 20260904131335 | 79 | 119 | 0.0 | 0.0 | 0.00 | 0.58 | 0.00 | 97 | 1014.4 |
| 20260904130827 | 79 | 119 | 0.0 | 0.0 | 0.00 | 0.58 | 0.00 | 97 | 1014.4 |
| 20260904130340 | 79 | 119 | 0.0 | 0.0 | 0.00 | 0.58 | 0.00 | 97 | 1014.4 |
| 20260904125831 | 79 | 119 | 0.0 | 0.0 | 0.00 | 0.58 | 0.00 | 97 | 1014.3 |
| 20260904125343 | 79 | 119 | 0.0 | 0.0 | 0.00 | 0.58 | 0.00 | 97 | 1014.3 |
| 20260904124835 | 79 | 119 | 0.0 | 0.0 | 0.00 | 0.58 | 0.00 | 97 | 1014.3 |
| 20260904124348 | 79 | 119 | 0.0 | 0.0 | 0.00 | 0.58 | 0.00 | 97 | 1014.0 |
| 20260904123901 | 79 | 119 | 0.0 | 0.0 | 0.00 | 0.58 | 0.00 | 97 | 1014.0 |
| 20260904123334 | 79 | 119 | 0.0 | 0.0 | 0.00 | 0.58 | 0.00 | 97 | 1014.0 |
| 20260904122829 | 79 | 119 | 0.0 | 0.0 | 0.00 | 0.58 | 0.00 | 97 | 1013.8 |
| 20260904122322 | 79 | 119 | 0.0 | 0.0 | 0.00 | 0.58 | 0.00 | 97 | 1013.8 |
| 20260904121835 | 79 | 119 | 0.0 | 0.0 | 0.00 | 0.58 | 0.00 | 96 | 1013.8 |
| 20260904121329 | 79 | 119 | 0.0 | 0.0 | 0.00 | 0.58 | 0.00 | 96 | 1013.7 |
| 20260904120823 | 79 | 119 | 0.0 | 0.0 | 0.00 | 0.58 | 0.00 | 97 | 1013.7 |
| 20260904120336 | 80 | 119 | 0.0 | 0.0 | 0.00 | 0.58 | 0.00 | 96 | 1013.7 |
| 20260904115825 | 80 | 119 | 0.0 | 0.0 | 0.00 | 0.58 | 0.00 | 97 | 1013.6 |
| 20260904115320 | 80 | 119 | 0.0 | 0.0 | 0.00 | 0.58 | 0.00 | 97 | 1013.6 |
| 20260904114838 | 80 | 119 | 0.0 | 0.0 | 0.00 | 0.58 | 0.00 | 97 | 1013.6 |
| 20260904114330 | 79 | 119 | 0.0 | 0.0 | 0.00 | 0.58 | 0.00 | 97 | 1013.7 |
| 20260904113825 | 79 | 64 | 0.0 | 0.0 | 0.00 | 0.58 | 0.00 | 96 | 1013.7 |
| 20260904113405 | 79 | 64 | 0.0 | 0.0 | 0.00 | 0.58 | 0.00 | 96 | 1013.7 |
| 20260904112857 | 79 | 64 | 0.0 | 0.0 | 0.00 | 0.58 | 0.00 | 96 | 1013.7 |
| 20260904112334 | 79 | 64 | 0.0 | 0.0 | 0.00 | 0.58 | 0.00 | 96 | 1013.7 |
| 20260904111829 | 80 | 64 | 0.0 | 0.0 | 0.00 | 0.58 | 0.00 | 96 | 1013.7 |
| 20260904111321 | 79 | 64 | 0.0 | 0.0 | 0.00 | 0.58 | 0.00 | 97 | 1013.7 |
| 20260904110836 | 80 | 64 | 0.0 | 0.0 | 0.00 | 0.58 | 0.00 | 96 | 1013.7 |
| 20260904110329 | 80 | 64 | 0.0 | 0.0 | 0.00 | 0.58 | 0.00 | 96 | 1013.7 |
| 20260904105843 | 80 | 64 | 0.0 | 0.0 | 0.00 | 0.58 | 0.00 | 96 | 1013.3 |
| 20260904105355 | 80 | 64 | 0.0 | 0.0 | 0.00 | 0.58 | 0.00 | 96 | 1013.3 |
| 20260904104826 | 80 | 64 | 0.0 | 0.0 | 0.00 | 0.58 | 0.00 | 96 | 1013.3 |
| 20260904104339 | 80 | 64 | 0.0 | 2.0 | 0.00 | 0.58 | 0.00 | 96 | 1013.2 |
| 20260904103831 | 80 | 64 | 0.0 | 2.0 | 0.00 | 0.58 | 0.00 | 96 | 1013.2 |
| 20260904103322 | 80 | 178 | 0.0 | 0.0 | 0.00 | 0.58 | 0.00 | 96 | 1013.2 |
| 20260904102835 | 80 | 178 | 0.0 | 0.0 | 0.00 | 0.58 | 0.00 | 96 | 1013.1 |
| 20260904102346 | 80 | 178 | 0.0 | 0.0 | 0.00 | 0.58 | 0.00 | 96 | 1013.1 |
| 20260904101857 | 80 | 178 | 0.0 | 0.0 | 0.00 | 0.58 | 0.00 | 96 | 1013.1 |
| 20260904101331 | 80 | 178 | 0.0 | 0.0 | 0.00 | 0.58 | 0.00 | 96 | 1013.2 |
| 20260904100847 | 80 | 178 | 0.0 | 0.0 | 0.00 | 0.58 | 0.00 | 96 | 1013.2 |
| 20260904100403 | 80 | 178 | 0.0 | 0.0 | 0.00 | 0.58 | 0.00 | 95 | 1013.2 |
| 20260904095835 | 80 | 178 | 0.0 | 0.0 | 0.00 | 0.58 | 0.00 | 95 | 1013.1 |
| 20260904095331 | 80 | 178 | 0.0 | 0.0 | 0.00 | 0.58 | 0.00 | 95 | 1013.1 |
| 20260904094826 | 80 | 178 | 0.0 | 0.0 | 0.00 | 0.58 | 0.00 | 95 | 1013.1 |
| 20260904094340 | 80 | 178 | 0.0 | 0.0 | 0.00 | 0.58 | 0.00 | 95 | 1013.0 |
| 20260904093835 | 80 | 178 | 0.0 | 0.0 | 0.00 | 0.58 | 0.00 | 95 | 1013.0 |
| 20260904093329 | 80 | 178 | 0.0 | 0.0 | 0.00 | 0.58 | 0.00 | 95 | 1013.0 |
| 20260904092840 | 80 | 178 | 0.0 | 0.0 | 0.00 | 0.58 | 0.00 | 95 | 1012.9 |
| 20260904092354 | 80 | 178 | 0.0 | 0.0 | 0.00 | 0.58 | 0.00 | 95 | 1012.9 |
| 20260904091826 | 80 | 178 | 0.0 | 0.0 | 0.00 | 0.58 | 0.00 | 95 | 1012.9 |
| 20260904091337 | 80 | 178 | 0.0 | 0.0 | 0.00 | 0.58 | 0.00 | 95 | 1012.9 |
| 20260904090828 | 80 | 178 | 0.0 | 0.0 | 0.00 | 0.58 | 0.00 | 95 | 1012.9 |
| 20260904090323 | 80 | 178 | 0.0 | 0.0 | 0.00 | 0.58 | 0.00 | 95 | 1012.9 |
| 20260904085833 | 80 | 178 | 0.0 | 0.0 | 0.00 | 0.58 | 0.00 | 94 | 1012.9 |
| 20260904085345 | 80 | 178 | 0.0 | 0.0 | 0.00 | 0.58 | 0.00 | 94 | 1012.9 |
| 20260904084840 | 80 | 178 | 0.0 | 0.0 | 0.00 | 0.58 | 0.00 | 94 | 1012.9 |
| 20260904084400 | 80 | 178 | 0.0 | 0.0 | 0.00 | 0.58 | 0.00 | 94 | 1012.9 |
| 20260904083834 | 80 | 178 | 0.0 | 0.0 | 0.00 | 0.58 | 0.00 | 94 | 1012.9 |
| 20260904083331 | 80 | 178 | 0.0 | 0.0 | 0.00 | 0.58 | 0.00 | 94 | 1012.9 |
| 20260904082826 | 80 | 178 | 0.0 | 0.0 | 0.00 | 0.58 | 0.00 | 94 | 1013.0 |
| 20260904082322 | 80 | 178 | 0.0 | 0.0 | 0.00 | 0.58 | 0.00 | 94 | 1013.0 |
| 20260904081822 | 80 | 178 | 0.0 | 0.0 | 0.00 | 0.58 | 0.00 | 94 | 1013.0 |
| 20260904081336 | 81 | 178 | 0.0 | 0.0 | 0.00 | 0.58 | 0.00 | 94 | 1013.1 |
| 20260904080849 | 80 | 178 | 0.0 | 0.0 | 0.00 | 0.58 | 0.00 | 94 | 1013.1 |
| 20260904080324 | 80 | 178 | 0.0 | 0.0 | 0.00 | 0.58 | 0.00 | 93 | 1013.1 |
| 20260904075835 | 81 | 178 | 0.0 | 0.0 | 0.00 | 0.58 | 0.00 | 93 | 1013.2 |
| 20260904075341 | 81 | 178 | 0.0 | 0.0 | 0.00 | 0.58 | 0.00 | 93 | 1013.2 |
| 20260904074854 | 81 | 178 | 0.0 | 0.0 | 0.00 | 0.58 | 0.00 | 93 | 1013.2 |
| 20260904074327 | 81 | 178 | 0.0 | 0.0 | 0.00 | 0.58 | 0.00 | 93 | 1013.3 |
| 20260904073837 | 81 | 178 | 0.0 | 0.0 | 0.00 | 0.58 | 0.00 | 93 | 1013.3 |
| 20260904073330 | 81 | 178 | 0.0 | 0.0 | 0.00 | 0.58 | 0.00 | 92 | 1013.3 |
| 20260904072825 | 81 | 178 | 0.0 | 0.0 | 0.00 | 0.58 | 0.00 | 92 | 1013.3 |
| 20260904072320 | 81 | 178 | 0.0 | 0.0 | 0.00 | 0.58 | 0.00 | 92 | 1013.3 |
| 20260904071838 | 81 | 178 | 0.0 | 0.0 | 0.00 | 0.58 | 0.00 | 92 | 1013.3 |
| 20260904071332 | 81 | 178 | 0.0 | 0.0 | 0.00 | 0.58 | 0.00 | 92 | 1013.3 |
| 20260904070827 | 81 | 178 | 0.0 | 0.0 | 0.00 | 0.58 | 0.00 | 92 | 1013.3 |
| 20260904070322 | 82 | 178 | 0.0 | 3.0 | 0.00 | 0.58 | 0.00 | 92 | 1013.3 |
| 20260904065839 | 82 | 178 | 1.0 | 3.0 | 0.00 | 0.58 | 0.00 | 92 | 1013.4 |
| 20260904065334 | 82 | 178 | 1.0 | 3.0 | 0.00 | 0.58 | 0.00 | 92 | 1013.4 |
| 20260904064828 | 82 | 149 | 0.0 | 3.0 | 0.00 | 0.58 | 0.00 | 92 | 1013.4 |
| 20260904064323 | 82 | 194 | 2.0 | 4.0 | 0.00 | 0.58 | 0.00 | 92 | 1013.4 |
| 20260904063903 | 82 | 211 | 2.0 | 4.0 | 0.00 | 0.58 | 0.00 | 92 | 1013.4 |
| 20260904063355 | 82 | 181 | 2.0 | 4.0 | 0.00 | 0.58 | 0.00 | 91 | 1013.4 |
| 20260904062848 | 82 | 156 | 2.0 | 4.0 | 0.00 | 0.58 | 0.00 | 91 | 1013.4 |
| 20260904062344 | 82 | 140 | 1.0 | 4.0 | 0.00 | 0.58 | 0.00 | 91 | 1013.4 |
| 20260904061901 | 82 | 117 | 0.0 | 4.0 | 0.00 | 0.58 | 0.00 | 91 | 1013.4 |
| 20260904061356 | 82 | 192 | 0.0 | 4.0 | 0.00 | 0.58 | 0.00 | 91 | 1013.5 |
| 20260904060830 | 82 | 182 | 1.0 | 4.0 | 0.00 | 0.58 | 0.00 | 92 | 1013.5 |
| 20260904060325 | 82 | 131 | 1.0 | 4.0 | 0.00 | 0.58 | 0.00 | 92 | 1013.5 |
| 20260904055853 | 82 | 136 | 2.0 | 5.0 | 0.00 | 0.58 | 0.00 | 91 | 1013.4 |
| 20260904055326 | 82 | 143 | 1.0 | 5.0 | 0.00 | 0.58 | 0.00 | 91 | 1013.4 |
| 20260904054838 | 82 | 134 | 3.0 | 4.0 | 0.00 | 0.58 | 0.00 | 92 | 1013.4 |
| 20260904054333 | 82 | 128 | 2.0 | 4.0 | 0.00 | 0.58 | 0.00 | 91 | 1013.4 |
| 20260904053830 | 82 | 125 | 1.0 | 3.0 | 0.00 | 0.58 | 0.00 | 91 | 1013.4 |
| 20260904053345 | 82 | 137 | 1.0 | 4.0 | 0.00 | 0.58 | 0.00 | 91 | 1013.4 |
| 20260904052840 | 82 | 134 | 1.0 | 4.0 | 0.00 | 0.58 | 0.00 | 91 | 1013.3 |
| 20260904052334 | 82 | 158 | 2.0 | 7.0 | 0.00 | 0.58 | 0.00 | 91 | 1013.3 |
| 20260904051830 | 82 | 135 | 5.0 | 7.0 | 0.00 | 0.58 | 0.00 | 91 | 1013.3 |
| 20260904051324 | 82 | 145 | 2.0 | 5.0 | 0.00 | 0.58 | 0.00 | 91 | 1013.3 |
| 20260904050838 | 82 | 167 | 1.0 | 3.0 | 0.00 | 0.58 | 0.00 | 91 | 1013.3 |
| 20260904050332 | 82 | 167 | 0.0 | 5.0 | 0.00 | 0.58 | 0.00 | 91 | 1013.3 |
| 20260904045837 | 82 | 139 | 1.0 | 4.0 | 0.00 | 0.58 | 0.58 | 91 | 1013.3 |
| 20260904045331 | 82 | 139 | 2.0 | 4.0 | 0.00 | 0.58 | 0.58 | 91 | 1013.3 |
| 20260904044826 | 82 | 131 | 2.0 | 5.0 | 0.00 | 0.58 | 0.58 | 91 | 1013.3 |
| 20260904044321 | 82 | 144 | 3.0 | 6.0 | 0.00 | 0.58 | 0.58 | 91 | 1013.3 |
| 20260904043825 | 82 | 141 | 3.0 | 6.0 | 0.00 | 0.58 | 0.58 | 91 | 1013.3 |
| 20260904043339 | 82 | 130 | 2.0 | 5.0 | 0.00 | 0.58 | 0.58 | 91 | 1013.3 |
| 20260904042832 | 82 | 132 | 2.0 | 4.0 | 0.00 | 0.58 | 0.58 | 91 | 1013.3 |
| 20260904042328 | 82 | 140 | 2.0 | 4.0 | 0.00 | 0.58 | 0.58 | 91 | 1013.3 |
| 20260904041842 | 82 | 156 | 2.0 | 5.0 | 0.00 | 0.58 | 0.58 | 90 | 1013.3 |
| 20260904041356 | 82 | 137 | 3.0 | 8.0 | 0.00 | 0.58 | 0.58 | 90 | 1013.3 |
| 20260904040831 | 82 | 138 | 1.0 | 8.0 | 0.00 | 0.58 | 0.58 | 91 | 1013.3 |
| 20260904040345 | 82 | 151 | 3.0 | 9.0 | 0.00 | 0.58 | 0.58 | 91 | 1013.3 |
| 20260904035832 | 82 | 141 | 4.0 | 8.0 | 0.00 | 0.58 | 0.58 | 91 | 1013.3 |
| 20260904035327 | 82 | 137 | 3.0 | 8.0 | 0.00 | 0.58 | 0.58 | 91 | 1013.3 |
| 20260904034823 | 82 | 146 | 3.0 | 7.0 | 0.00 | 0.58 | 0.58 | 92 | 1013.3 |
| 20260904034320 | 82 | 132 | 4.0 | 9.0 | 0.00 | 0.58 | 0.58 | 92 | 1013.3 |
| 20260904033837 | 82 | 138 | 4.0 | 9.0 | 0.00 | 0.58 | 0.58 | 92 | 1013.3 |
| 20260904033332 | 81 | 139 | 3.0 | 6.0 | 0.00 | 0.58 | 0.58 | 93 | 1013.3 |
| 20260904032849 | 81 | 132 | 3.0 | 4.0 | 0.00 | 0.58 | 0.58 | 93 | 1013.4 |
| 20260904032325 | 81 | 127 | 3.0 | 5.0 | 0.00 | 0.58 | 0.58 | 94 | 1013.4 |
| 20260904031821 | 81 | 184 | 3.0 | 5.0 | 0.00 | 0.58 | 0.58 | 95 | 1013.4 |
| 20260904031340 | 80 | 137 | 1.0 | 2.0 | 0.00 | 0.58 | 0.58 | 95 | 1013.4 |
| 20260904030837 | 80 | 35 | 0.0 | 0.0 | 0.00 | 0.58 | 0.58 | 95 | 1013.4 |
| 20260904030331 | 80 | 35 | 0.0 | 0.0 | 0.00 | 0.58 | 0.58 | 94 | 1013.4 |
| 20260904025846 | 80 | 35 | 0.0 | 0.0 | 0.00 | 0.58 | 0.58 | 94 | 1013.3 |
| 20260904025342 | 80 | 35 | 0.0 | 0.0 | 0.00 | 0.58 | 0.58 | 94 | 1013.3 |
| 20260904024855 | 80 | 35 | 0.0 | 0.0 | 0.00 | 0.58 | 0.58 | 94 | 1013.3 |
| 20260904024329 | 80 | 35 | 0.0 | 0.0 | 0.00 | 0.58 | 0.58 | 94 | 1013.3 |
| 20260904023824 | 80 | 35 | 0.0 | 2.0 | 0.00 | 0.58 | 0.58 | 94 | 1013.3 |
| 20260904023338 | 80 | 35 | 0.0 | 2.0 | 0.00 | 0.58 | 0.58 | 94 | 1013.3 |
| 20260904022835 | 80 | 137 | 0.0 | 3.0 | 0.00 | 0.58 | 0.58 | 94 | 1012.8 |
| 20260904022330 | 80 | 137 | 0.0 | 3.0 | 0.00 | 0.58 | 0.58 | 94 | 1012.8 |
| 20260904021826 | 80 | 133 | 0.0 | 3.0 | 0.00 | 0.58 | 0.58 | 94 | 1012.8 |
| 20260904021340 | 80 | 129 | 1.0 | 4.0 | 0.00 | 0.58 | 0.58 | 95 | 1012.8 |
| 20260904020833 | 80 | 132 | 2.0 | 4.0 | 0.00 | 0.58 | 0.58 | 95 | 1012.8 |
| 20260904020328 | 80 | 129 | 1.0 | 3.0 | 0.00 | 0.58 | 0.58 | 95 | 1012.8 |
| 20260904015840 | 80 | 125 | 0.0 | 1.0 | 0.00 | 0.58 | 0.58 | 95 | 1012.8 |
| 20260904015335 | 80 | 125 | 0.0 | 1.0 | 0.00 | 0.58 | 0.58 | 95 | 1012.8 |
| 20260904014835 | 80 | 125 | 0.0 | 2.0 | 0.00 | 0.58 | 0.58 | 95 | 1012.8 |
| 20260904014332 | 80 | 125 | 1.0 | 3.0 | 0.00 | 0.58 | 0.58 | 96 | 1012.7 |
| 20260904013828 | 80 | 125 | 1.0 | 3.0 | 0.00 | 0.58 | 0.58 | 96 | 1012.7 |
| 20260904013344 | 80 | 125 | 0.0 | 0.0 | 0.00 | 0.58 | 0.58 | 96 | 1012.7 |
| 20260904012837 | 80 | 125 | 0.0 | 0.0 | 0.00 | 0.58 | 0.58 | 95 | 1012.7 |
| 20260904012349 | 80 | 125 | 0.0 | 0.0 | 0.00 | 0.58 | 0.58 | 96 | 1012.7 |
| 20260904011835 | 80 | 125 | 0.0 | 0.0 | 0.00 | 0.58 | 0.58 | 95 | 1012.7 |
| 20260904011329 | 80 | 125 | 0.0 | 0.0 | 0.00 | 0.58 | 0.58 | 95 | 1012.4 |
| 20260904010841 | 80 | 125 | 0.0 | 0.0 | 0.00 | 0.58 | 0.58 | 95 | 1012.4 |
| 20260904010333 | 80 | 125 | 0.0 | 0.0 | 0.00 | 0.58 | 0.58 | 95 | 1012.4 |
| 20260904005844 | 80 | 125 | 0.0 | 0.0 | 0.00 | 0.58 | 0.58 | 96 | 1012.3 |
| 20260904005401 | 80 | 125 | 0.0 | 4.0 | 0.00 | 0.58 | 0.58 | 96 | 1012.3 |
| 20260904004837 | 80 | 125 | 0.0 | 4.0 | 0.00 | 0.58 | 0.58 | 96 | 1012.3 |
| 20260904004349 | 80 | 122 | 1.0 | 2.0 | 0.00 | 0.58 | 0.58 | 96 | 1012.4 |
| 20260904003842 | 80 | 115 | 0.0 | 0.0 | 0.00 | 0.58 | 0.58 | 96 | 1012.4 |
| 20260904003356 | 80 | 65 | 0.0 | 0.0 | 0.00 | 0.58 | 0.58 | 96 | 1012.4 |
| 20260904002850 | 80 | 65 | 0.0 | 1.0 | 0.00 | 0.58 | 0.58 | 96 | 1012.7 |
| 20260904002323 | 80 | 65 | 0.0 | 1.0 | 0.00 | 0.58 | 0.58 | 96 | 1012.7 |
| 20260904001839 | 80 | 65 | 0.0 | 1.0 | 0.00 | 0.58 | 0.58 | 97 | 1012.7 |
| 20260904001331 | 80 | 65 | 0.0 | 0.0 | 0.00 | 0.58 | 0.58 | 97 | 1012.8 |
| 20260904000824 | 80 | 65 | 0.0 | 1.0 | 0.00 | 0.58 | 0.58 | 97 | 1012.8 |
| 20260904000337 | 80 | 65 | 0.0 | 1.0 | 0.00 | 0.58 | 0.58 | 97 | 1012.8 |
| 20260903235849 | 80 | 65 | 0.0 | 3.0 | 0.00 | 0.58 | 0.58 | 97 | 1012.8 |
| 20260903235347 | 79 | 65 | 1.0 | 3.0 | 0.00 | 0.58 | 0.58 | 96 | 1012.8 |
| 20260903234856 | 79 | 65 | 0.0 | 1.0 | 0.00 | 0.58 | 0.58 | 97 | 1012.8 |
| 20260903234329 | 79 | 65 | 0.0 | 0.0 | 0.00 | 0.58 | 0.58 | 97 | 1012.8 |
| 20260903233825 | 79 | 65 | 0.0 | 0.0 | 0.00 | 0.58 | 0.58 | 97 | 1012.8 |
| 20260903233320 | 79 | 65 | 0.0 | 2.0 | 0.00 | 0.58 | 0.58 | 97 | 1012.8 |
| 20260903232835 | 79 | 65 | 1.0 | 2.0 | 0.00 | 0.58 | 0.58 | 97 | 1012.8 |
| 20260903232328 | 79 | 65 | 0.0 | 2.0 | 0.00 | 0.58 | 0.58 | 97 | 1012.8 |
| 20260903231840 | 79 | 65 | 0.0 | 2.0 | 0.00 | 0.58 | 0.58 | 97 | 1012.8 |
| 20260903231333 | 79 | 65 | 0.0 | 1.0 | 0.00 | 0.58 | 0.58 | 97 | 1012.8 |
| 20260903230824 | 78 | 65 | 0.0 | 2.0 | 0.00 | 0.58 | 0.58 | 97 | 1012.8 |
| 20260903230338 | 78 | 65 | 0.0 | 2.0 | 0.00 | 0.58 | 0.58 | 97 | 1012.8 |
| 20260903225829 | 78 | 65 | 0.0 | 2.0 | 0.00 | 0.58 | 0.58 | 97 | 1013.0 |
| 20260903225322 | 78 | 65 | 0.0 | 2.0 | 0.00 | 0.58 | 0.58 | 97 | 1013.0 |
| 20260903224835 | 78 | 82 | 0.0 | 3.0 | 0.00 | 0.58 | 0.58 | 97 | 1013.0 |
| 20260903224328 | 78 | 138 | 1.0 | 4.0 | 0.00 | 0.58 | 0.58 | 97 | 1013.0 |
| 20260903223841 | 78 | 120 | 2.0 | 4.0 | 0.00 | 0.58 | 0.58 | 97 | 1013.0 |
| 20260903223333 | 78 | 72 | 1.0 | 2.0 | 0.00 | 0.58 | 0.58 | 97 | 1013.0 |
| 20260903222845 | 78 | 72 | 0.0 | 3.0 | 0.00 | 0.58 | 0.58 | 97 | 1012.8 |
| 20260903222335 | 78 | 81 | 2.0 | 3.0 | 0.00 | 0.58 | 0.58 | 97 | 1012.8 |
| 20260903221847 | 78 | 49 | 0.0 | 1.0 | 0.00 | 0.58 | 0.58 | 97 | 1012.8 |
| 20260903221345 | 78 | 67 | 0.0 | 3.0 | 0.00 | 0.58 | 0.58 | 97 | 1013.3 |
| 20260903220853 | 78 | 67 | 1.0 | 3.0 | 0.00 | 0.58 | 0.58 | 97 | 1013.3 |
| 20260903220325 | 78 | 74 | 1.0 | 3.0 | 0.00 | 0.58 | 0.58 | 97 | 1013.3 |
| 20260903215855 | 78 | 107 | 0.0 | 2.0 | 0.00 | 0.58 | 0.58 | 97 | 1013.5 |
| 20260903215330 | 78 | 134 | 0.0 | 3.0 | 0.00 | 0.58 | 0.58 | 97 | 1013.5 |
| 20260903214822 | 77 | 61 | 0.0 | 3.0 | 0.00 | 0.58 | 0.58 | 97 | 1013.5 |
| 20260903214402 | 77 | 61 | 0.0 | 4.0 | 0.01 | 0.58 | 0.58 | 97 | 1013.7 |
| 20260903213853 | 77 | 74 | 0.0 | 4.0 | 0.01 | 0.58 | 0.58 | 96 | 1013.7 |
| 20260903213345 | 78 | 54 | 0.0 | 3.0 | 0.01 | 0.58 | 0.58 | 97 | 1013.7 |
| 20260903212837 | 78 | 68 | 1.0 | 3.0 | 0.02 | 0.58 | 0.58 | 97 | 1013.8 |
| 20260903212332 | 78 | 68 | 0.0 | 3.0 | 0.02 | 0.58 | 0.58 | 97 | 1013.8 |
| 20260903211845 | 78 | 63 | 0.0 | 2.0 | 0.02 | 0.58 | 0.58 | 97 | 1013.8 |
| 20260903211337 | 78 | 52 | 0.0 | 2.0 | 0.02 | 0.58 | 0.58 | 97 | 1013.9 |
| 20260903210850 | 78 | 331 | 0.0 | 0.0 | 0.03 | 0.58 | 0.58 | 97 | 1013.9 |
| 20260903210340 | 78 | 331 | 0.0 | 0.0 | 0.03 | 0.58 | 0.58 | 97 | 1013.9 |
| 20260903205828 | 78 | 331 | 0.0 | 0.0 | 0.04 | 0.58 | 0.58 | 97 | 1014.1 |
| 20260903205335 | 78 | 331 | 0.0 | 0.0 | 0.04 | 0.58 | 0.58 | 97 | 1014.1 |
| 20260903204826 | 78 | 331 | 0.0 | 0.0 | 0.05 | 0.58 | 0.58 | 97 | 1014.1 |
| 20260903204341 | 78 | 331 | 0.0 | 0.0 | 0.04 | 0.57 | 0.57 | 97 | 1014.3 |
| 20260903203833 | 78 | 331 | 0.0 | 0.0 | 0.04 | 0.57 | 0.57 | 97 | 1014.3 |
| 20260903203326 | 78 | 331 | 0.0 | 1.0 | 0.04 | 0.57 | 0.57 | 97 | 1014.3 |
| 20260903202840 | 77 | 331 | 0.0 | 1.0 | 0.04 | 0.56 | 0.56 | 97 | 1014.3 |
| 20260903202334 | 77 | 331 | 0.0 | 0.0 | 0.04 | 0.56 | 0.56 | 97 | 1014.3 |
| 20260903201850 | 77 | 331 | 0.0 | 1.0 | 0.04 | 0.56 | 0.56 | 97 | 1014.3 |
| 20260903201341 | 77 | 331 | 0.0 | 1.0 | 0.04 | 0.56 | 0.56 | 97 | 1014.0 |
| 20260903200834 | 77 | 331 | 0.0 | 0.0 | 0.03 | 0.55 | 0.55 | 97 | 1014.0 |
| 20260903200326 | 77 | 331 | 0.0 | 0.0 | 0.03 | 0.55 | 0.55 | 97 | 1014.0 |
| 20260903195838 | 77 | 331 | 0.0 | 0.0 | 0.03 | 0.54 | 0.54 | 97 | 1014.3 |
| 20260903195353 | 76 | 331 | 0.0 | 0.0 | 0.04 | 0.54 | 0.54 | 97 | 1014.3 |
| 20260903194845 | 76 | 331 | 0.0 | 0.0 | 0.05 | 0.53 | 0.53 | 96 | 1014.3 |
| 20260903194404 | 76 | 331 | 0.0 | 1.0 | 0.08 | 0.53 | 0.53 | 96 | 1014.3 |
| 20260903193833 | 76 | 331 | 0.0 | 1.0 | 0.15 | 0.53 | 0.53 | 96 | 1014.3 |
| 20260903193327 | 76 | 331 | 0.0 | 1.0 | 0.23 | 0.53 | 0.53 | 96 | 1014.3 |
| 20260903192839 | 75 | 331 | 0.0 | 1.0 | 0.39 | 0.52 | 0.52 | 96 | 1014.4 |
| 20260903192330 | 75 | 331 | 0.0 | 2.0 | 0.51 | 0.52 | 0.52 | 95 | 1014.4 |
| 20260903191823 | 76 | 324 | 0.0 | 2.0 | 0.51 | 0.52 | 0.52 | 95 | 1014.4 |
| 20260903191337 | 76 | 341 | 0.0 | 2.0 | 0.51 | 0.52 | 0.52 | 95 | 1014.4 |
| 20260903190828 | 75 | 93 | 0.0 | 0.0 | 0.51 | 0.52 | 0.52 | 95 | 1014.4 |
| 20260903190341 | 75 | 93 | 0.0 | 1.0 | 0.51 | 0.52 | 0.52 | 95 | 1014.4 |
| 20260903185830 | 75 | 93 | 0.0 | 2.0 | 0.50 | 0.51 | 0.51 | 94 | 1014.6 |
| 20260903185347 | 75 | 93 | 0.0 | 3.0 | 0.49 | 0.50 | 0.50 | 94 | 1014.6 |
| 20260903184858 | 75 | 93 | 1.0 | 3.0 | 0.48 | 0.49 | 0.49 | 94 | 1014.6 |
| 20260903184330 | 75 | 12 | 0.0 | 5.0 | 0.44 | 0.45 | 0.45 | 93 | 1015.2 |
| 20260903183841 | 76 | 12 | 1.0 | 11.0 | 0.38 | 0.39 | 0.39 | 91 | 1015.2 |
| 20260903183335 | 77 | 141 | 6.0 | 14.0 | 0.30 | 0.31 | 0.31 | 90 | 1015.2 |
| 20260903182829 | 79 | 154 | 8.0 | 14.0 | 0.14 | 0.15 | 0.15 | 88 | 1015.3 |
| 20260903182338 | 80 | 149 | 3.0 | 12.0 | 0.00 | 0.01 | 0.01 | 88 | 1015.3 |
| 20260903181831 | 80 | 161 | 7.0 | 10.0 | 0.00 | 0.01 | 0.01 | 86 | 1015.3 |
| 20260903181342 | 81 | 121 | 1.0 | 9.0 | 0.00 | 0.01 | 0.01 | 84 | 1014.8 |
| 20260903180853 | 83 | 75 | 3.0 | 10.0 | 0.00 | 0.01 | 0.01 | 83 | 1014.8 |
| 20260903180327 | 84 | 93 | 3.0 | 11.0 | 0.00 | 0.01 | 0.01 | 82 | 1014.8 |
| 20260903175838 | 85 | 99 | 2.0 | 11.0 | 0.00 | 0.01 | 0.01 | 83 | 1014.9 |
| 20260903175351 | 86 | 76 | 2.0 | 3.0 | 0.00 | 0.01 | 0.01 | 82 | 1014.9 |
| 20260903174822 | 86 | 79 | 0.0 | 2.0 | 0.00 | 0.01 | 0.01 | 81 | 1014.9 |
| 20260903174339 | 86 | 28 | 0.0 | 3.0 | 0.00 | 0.01 | 0.01 | 81 | 1014.9 |
| 20260903173832 | 86 | 28 | 1.0 | 2.0 | 0.00 | 0.01 | 0.01 | 81 | 1014.9 |
| 20260903173325 | 86 | 92 | 0.0 | 1.0 | 0.00 | 0.01 | 0.01 | 80 | 1014.9 |
| 20260903172822 | 87 | 37 | 0.0 | 3.0 | 0.00 | 0.01 | 0.01 | 80 | 1014.4 |
| 20260903172402 | 87 | 359 | 0.0 | 3.0 | 0.00 | 0.01 | 0.01 | 80 | 1014.4 |
| 20260903171833 | 87 | 352 | 2.0 | 4.0 | 0.00 | 0.01 | 0.01 | 79 | 1014.4 |
| 20260903171325 | 87 | 331 | 1.0 | 6.0 | 0.00 | 0.01 | 0.01 | 79 | 1014.8 |
| 20260903170834 | 87 | 23 | 1.0 | 6.0 | 0.00 | 0.01 | 0.01 | 79 | 1014.8 |
| 20260903170325 | 87 | 296 | 2.0 | 5.0 | 0.00 | 0.01 | 0.01 | 80 | 1014.8 |
| 20260903165902 | 88 | 354 | 2.0 | 5.0 | 0.00 | 0.01 | 0.01 | 79 | 1014.8 |
| 20260903165333 | 88 | 298 | 1.0 | 5.0 | 0.00 | 0.01 | 0.01 | 79 | 1014.8 |
| 20260903164825 | 88 | 318 | 1.0 | 4.0 | 0.00 | 0.01 | 0.01 | 79 | 1014.8 |
| 20260903164336 | 88 | 305 | 2.0 | 4.0 | 0.00 | 0.01 | 0.01 | 80 | 1014.8 |
| 20260903163828 | 88 | 300 | 3.0 | 4.0 | 0.00 | 0.01 | 0.01 | 79 | 1014.8 |
| 20260903163342 | 87 | 293 | 2.0 | 6.0 | 0.00 | 0.01 | 0.01 | 80 | 1014.8 |
| 20260903162835 | 87 | 262 | 3.0 | 6.0 | 0.00 | 0.01 | 0.01 | 80 | 1014.8 |
| 20260903162345 | 87 | 260 | 1.0 | 4.0 | 0.00 | 0.01 | 0.01 | 80 | 1014.8 |
| 20260903161857 | 87 | 314 | 2.0 | 4.0 | 0.00 | 0.01 | 0.01 | 80 | 1014.8 |
| 20260903161352 | 88 | 296 | 2.0 | 4.0 | 0.01 | 0.01 | 0.01 | 80 | 1014.8 |
| 20260903160827 | 88 | 219 | 1.0 | 4.0 | 0.01 | 0.01 | 0.01 | 79 | 1014.8 |
| 20260903160341 | 88 | 258 | 3.0 | 4.0 | 0.01 | 0.01 | 0.01 | 79 | 1014.8 |
| 20260903155834 | 88 | 197 | 0.0 | 3.0 | 0.01 | 0.01 | 0.01 | 81 | 1014.8 |
| 20260903155328 | 87 | 186 | 1.0 | 3.0 | 0.01 | 0.01 | 0.01 | 81 | 1014.8 |
| 20260903154840 | 87 | 154 | 0.0 | 3.0 | 0.01 | 0.01 | 0.01 | 82 | 1014.8 |
| 20260903154331 | 86 | 192 | 0.0 | 3.0 | 0.01 | 0.01 | 0.01 | 83 | 1014.8 |
| 20260903153823 | 86 | 192 | 2.0 | 4.0 | 0.01 | 0.01 | 0.01 | 84 | 1014.8 |
| 20260903153336 | 86 | 153 | 2.0 | 4.0 | 0.01 | 0.01 | 0.01 | 84 | 1014.8 |
| 20260903152830 | 85 | 193 | 0.0 | 0.0 | 0.01 | 0.01 | 0.01 | 86 | 1014.9 |
| 20260903152325 | 85 | 193 | 0.0 | 3.0 | 0.01 | 0.01 | 0.01 | 86 | 1014.9 |
| 20260903151820 | 85 | 193 | 1.0 | 3.0 | 0.01 | 0.01 | 0.01 | 85 | 1014.9 |
| 20260903151334 | 85 | 140 | 1.0 | 3.0 | 0.00 | 0.00 | 0.00 | 85 | 1015.0 |
| 20260903150827 | 85 | 206 | 0.0 | 4.0 | 0.00 | 0.00 | 0.00 | 85 | 1015.0 |
| 20260903150335 | 85 | 205 | 1.0 | 6.0 | 0.00 | 0.00 | 0.00 | 85 | 1015.0 |
| 20260903145826 | 84 | 146 | 3.0 | 6.0 | 0.00 | 0.00 | 0.00 | 85 | 1015.3 |
| 20260903145324 | 84 | 169 | 3.0 | 8.0 | 0.00 | 0.00 | 0.00 | 86 | 1015.3 |
| 20260903144839 | 84 | 152 | 2.0 | 9.0 | 0.00 | 0.00 | 0.00 | 86 | 1015.3 |
| 20260903144331 | 84 | 131 | 6.0 | 9.0 | 0.00 | 0.00 | 0.00 | 86 | 1015.0 |
| 20260903143824 | 84 | 130 | 3.0 | 4.0 | 0.00 | 0.00 | 0.00 | 87 | 1015.0 |
| 20260903143337 | 84 | 201 | 1.0 | 7.0 | 0.00 | 0.00 | 0.00 | 88 | 1015.0 |
| 20260903142829 | 84 | 141 | 4.0 | 7.0 | 0.00 | 0.00 | 0.00 | 87 | 1015.1 |
| 20260903142409 | 84 | 139 | 1.0 | 7.0 | 0.00 | 0.00 | 0.00 | 87 | 1015.1 |
| 20260903141838 | 84 | 167 | 3.0 | 7.0 | 0.00 | 0.00 | 0.00 | 87 | 1015.1 |